Time,TemperatureF,DewpointF,PressureIn,WindDirection,WindDirectionDegrees,WindSpeedMPH,WindSpeedGustMPH,Humidity,HourlyPrecipIn,Conditions,Clouds,dailyrainin,SoftwareType,DateUTC
2013-06-07 00:03:00,60.0,55.0,29.92,NW,310,0.0,3.0,83,0.00,,,0.56,,2013-06-07 05:03:00,
2013-06-07 00:12:00,60.0,55.0,29.92,NW,310,0.0,3.0,83,0.00,,,0.56,,2013-06-07 05:12:00,
2013-06-07 00:22:00,60.0,55.0,29.92,NW,316,0.0,3.0,83,0.00,,,0.56,,2013-06-07 05:22:00,
2013-06-07 00:32:00,60.0,55.0,29.93,NW,308,0.0,1.0,83,0.00,,,0.56,,2013-06-07 05:32:00,
2013-06-07 00:42:00,60.0,55.0,29.93,NW,308,0.0,1.0,83,0.00,,,0.56,,2013-06-07 05:42:00,
2013-06-07 00:52:00,59.0,54.0,29.93,NW,308,0.0,2.0,83,0.00,,,0.56,,2013-06-07 05:52:00,
2013-06-07 01:02:00,59.0,54.0,29.93,NW,308,0.0,2.0,83,0.00,,,0.56,,2013-06-07 06:02:00,
2013-06-07 01:12:00,59.0,54.0,29.93,NW,308,0.0,2.0,83,0.00,,,0.56,,2013-06-07 06:12:00,
2013-06-07 01:22:00,59.0,54.0,29.93,NW,308,0.0,1.0,83,0.00,,,0.56,,2013-06-07 06:22:00,
2013-06-07 01:32:00,59.0,54.0,29.93,NW,308,0.0,0.0,84,0.00,,,0.56,,2013-06-07 06:32:00,
2013-06-07 01:42:00,59.0,54.0,29.93,NW,308,0.0,0.0,84,0.00,,,0.56,,2013-06-07 06:42:00,
2013-06-07 01:52:00,59.0,54.0,29.93,NW,308,0.0,1.0,84,0.00,,,0.56,,2013-06-07 06:52:00,
2013-06-07 02:02:00,59.0,54.0,29.93,NW,308,0.0,1.0,83,0.00,,,0.56,,2013-06-07 07:02:00,
2013-06-07 02:12:00,59.0,54.0,29.93,NW,308,0.0,1.0,83,0.00,,,0.56,,2013-06-07 07:12:00,
2013-06-07 02:22:00,59.0,54.0,29.93,NW,313,0.0,2.0,83,0.00,,,0.48,,2013-06-07 07:22:00,
2013-06-07 02:32:00,59.0,54.0,29.92,NW,309,0.0,1.0,83,0.00,,,0.48,,2013-06-07 07:32:00,
2013-06-07 02:42:00,59.0,54.0,29.92,NW,309,0.0,1.0,83,0.00,,,0.48,,2013-06-07 07:42:00,
2013-06-07 02:52:00,58.0,53.0,29.92,North,355,0.0,3.0,82,0.00,,,0.48,,2013-06-07 07:52:00,
2013-06-07 03:02:00,58.0,53.0,29.92,North,355,0.0,0.0,82,0.00,,,0.48,,2013-06-07 08:02:00,
2013-06-07 03:12:00,58.0,53.0,29.92,North,355,0.0,0.0,82,0.00,,,0.48,,2013-06-07 08:12:00,
2013-06-07 03:22:00,58.0,53.0,29.92,North,355,0.0,1.0,82,0.00,,,0.40,,2013-06-07 08:22:00,
2013-06-07 03:32:00,58.0,53.0,29.92,North,355,0.0,0.0,82,0.00,,,0.40,,2013-06-07 08:32:00,
2013-06-07 03:42:00,58.0,53.0,29.92,North,355,0.0,0.0,82,0.00,,,0.40,,2013-06-07 08:42:00,
2013-06-07 03:52:00,57.0,52.0,29.92,North,355,0.0,1.0,82,0.00,,,0.40,,2013-06-07 08:52:00,
2013-06-07 04:02:00,57.0,52.0,29.91,North,355,0.0,0.0,82,0.00,,,0.40,,2013-06-07 09:02:00,
2013-06-07 04:12:00,57.0,52.0,29.91,North,355,0.0,0.0,82,0.00,,,0.40,,2013-06-07 09:12:00,
2013-06-07 04:22:00,56.0,51.0,29.92,North,355,0.0,0.0,82,0.00,,,0.35,,2013-06-07 09:22:00,
2013-06-07 04:32:00,55.0,50.0,29.92,North,355,0.0,0.0,83,0.00,,,0.35,,2013-06-07 09:32:00,
2013-06-07 04:43:00,55.0,50.0,29.92,North,355,0.0,0.0,83,0.00,,,0.35,,2013-06-07 09:43:00,
2013-06-07 04:53:00,54.0,49.0,29.92,North,355,0.0,0.0,84,0.00,,,0.35,,2013-06-07 09:53:00,
2013-06-07 05:02:00,54.0,49.0,29.92,North,355,0.0,0.0,84,0.00,,,0.35,,2013-06-07 10:02:00,
2013-06-07 05:12:00,54.0,49.0,29.92,North,355,0.0,0.0,84,0.00,,,0.35,,2013-06-07 10:12:00,
2013-06-07 05:23:00,53.0,49.0,29.93,North,355,0.0,0.0,85,0.00,,,0.20,,2013-06-07 10:23:00,
2013-06-07 05:32:00,53.0,49.0,29.93,North,355,0.0,0.0,86,0.00,,,0.20,,2013-06-07 10:32:00,
2013-06-07 05:42:00,53.0,49.0,29.93,North,355,0.0,0.0,86,0.00,,,0.20,,2013-06-07 10:42:00,
2013-06-07 05:53:00,53.0,49.0,29.93,North,355,0.0,0.0,87,0.00,,,0.20,,2013-06-07 10:53:00,
2013-06-07 06:02:00,54.0,50.0,29.93,North,355,0.0,0.0,87,0.00,,,0.20,,2013-06-07 11:02:00,
2013-06-07 06:12:00,54.0,50.0,29.93,North,355,0.0,0.0,87,0.00,,,0.20,,2013-06-07 11:12:00,
2013-06-07 06:22:00,54.0,51.0,29.94,North,355,0.0,0.0,90,0.00,,,0.05,,2013-06-07 11:22:00,
2013-06-07 06:32:00,55.0,52.0,29.94,North,355,0.0,0.0,88,0.00,,,0.05,,2013-06-07 11:32:00,
2013-06-07 06:42:00,55.0,52.0,29.94,North,355,0.0,0.0,88,0.00,,,0.05,,2013-06-07 11:42:00,
2013-06-07 06:52:00,55.0,52.0,29.94,North,355,0.0,0.0,88,0.00,,,0.05,,2013-06-07 11:52:00,
2013-06-07 07:02:00,56.0,52.0,29.94,North,355,0.0,0.0,88,0.00,,,0.05,,2013-06-07 12:02:00,
2013-06-07 07:12:00,56.0,52.0,29.94,North,355,0.0,0.0,88,0.00,,,0.05,,2013-06-07 12:12:00,
2013-06-07 07:22:00,56.0,53.0,29.95,North,355,0.0,0.0,89,0.00,,,0.00,,2013-06-07 12:22:00,
2013-06-07 07:32:00,57.0,54.0,29.95,North,355,0.0,0.0,89,0.00,,,0.00,,2013-06-07 12:32:00,
2013-06-07 07:42:00,57.0,54.0,29.95,North,355,0.0,0.0,89,0.00,,,0.00,,2013-06-07 12:42:00,
2013-06-07 07:52:00,58.0,54.0,29.95,North,355,0.0,0.0,88,0.00,,,0.00,,2013-06-07 12:52:00,
2013-06-07 08:02:00,58.0,54.0,29.95,North,355,0.0,1.0,87,0.00,,,0.00,,2013-06-07 13:02:00,
2013-06-07 08:12:00,58.0,54.0,29.95,North,355,0.0,1.0,87,0.00,,,0.00,,2013-06-07 13:12:00,
2013-06-07 08:22:00,59.0,54.0,29.96,North,355,0.0,0.0,85,0.00,,,0.00,,2013-06-07 13:22:00,
2013-06-07 08:32:00,60.0,55.0,29.96,NNW,346,0.0,0.0,84,0.00,,,0.00,,2013-06-07 13:32:00,
2013-06-07 08:42:00,60.0,55.0,29.96,NNW,346,0.0,0.0,84,0.00,,,0.00,,2013-06-07 13:42:00,
2013-06-07 08:52:00,61.0,55.0,29.96,SE,126,0.0,2.0,81,0.00,,,0.00,,2013-06-07 13:52:00,
2013-06-07 09:02:00,61.0,55.0,29.97,SE,126,0.0,2.0,81,0.00,,,0.00,,2013-06-07 14:02:00,
2013-06-07 09:12:00,61.0,55.0,29.97,SE,126,0.0,2.0,81,0.00,,,0.00,,2013-06-07 14:12:00,
2013-06-07 09:22:00,62.0,56.0,29.97,SE,126,0.0,2.0,80,0.00,,,0.00,,2013-06-07 14:22:00,
2013-06-07 09:32:00,62.0,55.0,29.97,SE,128,0.0,2.0,77,0.00,,,0.00,,2013-06-07 14:32:00,
2013-06-07 09:42:00,62.0,55.0,29.97,SE,128,0.0,2.0,77,0.00,,,0.00,,2013-06-07 14:42:00,
2013-06-07 09:52:00,62.0,55.0,29.97,SE,128,0.0,1.0,78,0.00,,,0.00,,2013-06-07 14:52:00,
2013-06-07 10:02:00,63.0,56.0,29.97,SE,128,0.0,0.0,78,0.00,,,0.00,,2013-06-07 15:02:00,
2013-06-07 10:12:00,63.0,56.0,29.97,SE,128,0.0,0.0,78,0.00,,,0.00,,2013-06-07 15:12:00,
2013-06-07 10:22:00,63.0,55.0,29.96,SE,128,0.0,2.0,75,0.00,,,0.00,,2013-06-07 15:22:00,
2013-06-07 10:33:00,64.0,56.0,29.97,SE,130,0.0,1.0,75,0.00,,,0.00,,2013-06-07 15:33:00,
2013-06-07 10:43:00,64.0,56.0,29.97,SE,130,0.0,1.0,75,0.00,,,0.00,,2013-06-07 15:43:00,
2013-06-07 10:53:00,66.0,56.0,29.96,NNW,337,3.0,8.0,70,0.00,,,0.00,,2013-06-07 15:53:00,
2013-06-07 11:03:00,66.0,56.0,29.96,NNW,332,1.0,5.0,71,0.00,,,0.00,,2013-06-07 16:03:00,
2013-06-07 11:13:00,66.0,56.0,29.96,NNW,332,1.0,5.0,71,0.00,,,0.00,,2013-06-07 16:13:00,
2013-06-07 11:22:00,68.0,57.0,29.96,NW,325,0.0,5.0,69,0.00,,,0.00,,2013-06-07 16:22:00,
2013-06-07 11:33:00,68.0,55.0,29.96,NNW,338,1.0,4.0,63,0.00,,,0.00,,2013-06-07 16:33:00,
2013-06-07 11:43:00,68.0,55.0,29.96,NNW,338,1.0,4.0,63,0.00,,,0.00,,2013-06-07 16:43:00,
2013-06-07 11:53:00,69.0,57.0,29.96,NNW,344,2.0,4.0,65,0.00,,,0.00,,2013-06-07 16:53:00,
2013-06-07 12:02:00,69.0,55.0,29.95,NNW,336,1.0,3.0,62,0.00,,,0.00,,2013-06-07 17:02:00,
2013-06-07 12:12:00,69.0,55.0,29.95,NNW,336,1.0,3.0,62,0.00,,,0.00,,2013-06-07 17:12:00,
2013-06-07 12:22:00,69.0,55.0,29.95,NNW,342,1.0,4.0,60,0.00,,,0.00,,2013-06-07 17:22:00,
2013-06-07 12:32:00,70.0,58.0,29.95,East,90,0.0,5.0,65,0.00,,,0.00,,2013-06-07 17:32:00,
2013-06-07 12:42:00,70.0,58.0,29.95,East,90,0.0,5.0,65,0.00,,,0.00,,2013-06-07 17:42:00,
2013-06-07 12:52:00,71.0,56.0,29.95,NNW,327,0.0,3.0,60,0.00,,,0.00,,2013-06-07 17:52:00,
2013-06-07 13:05:00,71.0,56.0,29.94,North,355,1.0,4.0,59,0.00,,,0.00,,2013-06-07 18:05:00,
2013-06-07 13:17:00,71.0,56.0,29.94,North,355,1.0,4.0,59,0.00,,,0.00,,2013-06-07 18:17:00,
2013-06-07 13:23:00,72.0,56.0,29.93,NNW,329,2.0,5.0,57,0.00,,,0.00,,2013-06-07 18:23:00,
2013-06-07 13:35:00,71.0,54.0,29.93,WNW,290,0.0,4.0,55,0.00,,,0.00,,2013-06-07 18:35:00,
2013-06-07 13:44:00,71.0,54.0,29.93,WNW,290,0.0,4.0,55,0.00,,,0.00,,2013-06-07 18:44:00,
2013-06-07 13:58:00,72.0,54.0,29.93,NNW,327,1.0,4.0,53,0.00,,,0.00,,2013-06-07 18:58:00,
2013-06-07 14:05:00,72.0,52.0,29.93,North,349,0.0,5.0,50,0.00,,,0.00,,2013-06-07 19:05:00,
2013-06-07 14:14:00,72.0,52.0,29.93,North,349,0.0,5.0,50,0.00,,,0.00,,2013-06-07 19:14:00,
2013-06-07 14:28:00,71.0,52.0,29.93,North,355,1.0,4.0,52,0.00,,,0.00,,2013-06-07 19:28:00,
2013-06-07 14:34:00,71.0,53.0,29.93,WNW,300,0.0,2.0,53,0.00,,,0.00,,2013-06-07 19:34:00,
2013-06-07 14:46:00,71.0,53.0,29.93,WNW,300,0.0,2.0,53,0.00,,,0.00,,2013-06-07 19:46:00,
2013-06-07 14:58:00,71.0,52.0,29.93,WNW,302,0.0,1.0,52,0.00,,,0.00,,2013-06-07 19:58:00,
2013-06-07 15:06:00,71.0,54.0,29.93,NW,319,0.0,3.0,56,0.00,,,0.00,,2013-06-07 20:06:00,
2013-06-07 15:15:00,71.0,54.0,29.93,NW,319,0.0,3.0,56,0.00,,,0.00,,2013-06-07 20:15:00,
2013-06-07 15:24:00,71.0,54.0,29.93,NW,321,0.0,3.0,55,0.00,,,0.00,,2013-06-07 20:24:00,
2013-06-07 15:37:00,71.0,54.0,29.93,NW,324,2.0,5.0,56,0.00,,,0.00,,2013-06-07 20:37:00,
2013-06-07 15:45:00,71.0,54.0,29.93,NW,324,2.0,5.0,56,0.00,,,0.00,,2013-06-07 20:45:00,
2013-06-07 15:58:00,71.0,54.0,29.92,NNW,336,2.0,4.0,55,0.00,,,0.00,,2013-06-07 20:58:00,
2013-06-07 16:05:00,71.0,55.0,29.92,NNW,336,0.0,1.0,57,0.00,,,0.00,,2013-06-07 21:05:00,
2013-06-07 16:17:00,71.0,55.0,29.92,NNW,336,0.0,1.0,57,0.00,,,0.00,,2013-06-07 21:17:00,
2013-06-07 16:26:00,71.0,58.0,29.92,NNW,336,0.0,1.0,63,0.00,,,0.00,,2013-06-07 21:26:00,
2013-06-07 16:38:00,70.0,55.0,29.92,NNW,336,0.0,0.0,59,0.00,,,0.00,,2013-06-07 21:38:00,
2013-06-07 16:45:00,70.0,55.0,29.92,NNW,336,0.0,0.0,59,0.00,,,0.00,,2013-06-07 21:45:00,
2013-06-07 17:00:00,70.0,55.0,29.91,NNW,336,0.0,0.0,60,0.00,,,0.00,,2013-06-07 22:00:00,
2013-06-07 17:07:00,70.0,53.0,29.91,SSE,150,0.0,3.0,55,0.00,,,0.00,,2013-06-07 22:07:00,
2013-06-07 17:27:00,72.0,54.0,29.91,NW,315,2.0,5.0,53,0.00,,,0.00,,2013-06-07 22:27:00,
2013-06-07 17:35:00,73.0,54.0,29.90,NW,314,1.0,3.0,51,0.00,,,0.00,,2013-06-07 22:35:00,
2013-06-07 17:59:00,73.0,53.0,29.91,SE,136,0.0,4.0,50,0.00,,,0.00,,2013-06-07 22:59:00,
2013-06-07 18:05:00,73.0,52.0,29.90,SE,136,0.0,2.0,48,0.00,,,0.00,,2013-06-07 23:05:00,
2013-06-07 18:18:00,73.0,52.0,29.90,SE,136,0.0,2.0,48,0.00,,,0.00,,2013-06-07 23:18:00,
2013-06-07 18:28:00,73.0,54.0,29.90,North,9,0.0,3.0,52,0.00,,,0.00,,2013-06-07 23:28:00,
2013-06-07 18:36:00,73.0,55.0,29.90,North,9,0.0,1.0,53,0.00,,,0.00,,2013-06-07 23:36:00,
2013-06-07 18:48:00,73.0,55.0,29.90,North,9,0.0,1.0,53,0.00,,,0.00,,2013-06-07 23:48:00,
2013-06-07 19:02:00,73.0,55.0,29.90,NNW,333,0.0,4.0,54,0.00,,,0.00,,2013-06-08 00:02:00,
2013-06-07 19:09:00,72.0,52.0,29.90,SW,218,0.0,1.0,49,0.00,,,0.00,,2013-06-08 00:09:00,
2013-06-07 19:16:00,71.0,53.0,29.90,SW,218,0.0,0.0,53,0.00,,,0.00,,2013-06-08 00:16:00,
2013-06-07 19:26:00,71.0,53.0,29.90,SW,218,0.0,0.0,53,0.00,,,0.00,,2013-06-08 00:26:00,
2013-06-07 19:34:00,70.0,55.0,29.90,SW,218,0.0,0.0,59,0.00,,,0.00,,2013-06-08 00:34:00,
2013-06-07 19:44:00,70.0,55.0,29.90,SW,218,0.0,0.0,59,0.00,,,0.00,,2013-06-08 00:44:00,
2013-06-07 19:59:00,69.0,54.0,29.90,SW,218,0.0,0.0,58,0.00,,,0.00,,2013-06-08 00:59:00,
2013-06-07 20:05:00,68.0,54.0,29.90,SW,218,0.0,0.0,62,0.00,,,0.00,,2013-06-08 01:05:00,
2013-06-07 20:18:00,68.0,54.0,29.90,SW,218,0.0,0.0,62,0.00,,,0.00,,2013-06-08 01:18:00,
2013-06-07 20:26:00,66.0,53.0,29.90,SW,218,0.0,0.0,64,0.00,,,0.00,,2013-06-08 01:26:00,
2013-06-07 20:37:00,65.0,54.0,29.91,SW,218,0.0,0.0,68,0.00,,,0.00,,2013-06-08 01:37:00,
2013-06-07 20:44:00,65.0,54.0,29.91,SW,218,0.0,0.0,68,0.00,,,0.00,,2013-06-08 01:44:00,
2013-06-07 21:00:00,63.0,54.0,29.91,SW,218,0.0,0.0,72,0.00,,,0.00,,2013-06-08 02:00:00,
2013-06-07 21:08:00,62.0,54.0,29.91,SW,218,0.0,0.0,74,0.00,,,0.00,,2013-06-08 02:08:00,
2013-06-07 21:28:00,61.0,54.0,29.91,SW,218,0.0,0.0,77,0.00,,,0.00,,2013-06-08 02:28:00,
2013-06-07 21:33:00,60.0,53.0,29.91,SW,218,0.0,0.0,79,0.00,,,0.00,,2013-06-08 02:33:00,
2013-06-07 21:47:00,60.0,53.0,29.91,SW,218,0.0,0.0,79,0.00,,,0.00,,2013-06-08 02:47:00,
2013-06-07 21:59:00,59.0,53.0,29.91,SW,218,0.0,0.0,80,0.00,,,0.00,,2013-06-08 02:59:00,
2013-06-07 22:08:00,58.0,53.0,29.92,SW,218,0.0,0.0,82,0.00,,,0.00,,2013-06-08 03:08:00,
2013-06-07 22:25:00,58.0,53.0,29.92,SW,218,0.0,0.0,83,0.00,,,0.00,,2013-06-08 03:25:00,
2013-06-07 22:36:00,57.0,52.0,29.92,SW,218,0.0,0.0,84,0.00,,,0.00,,2013-06-08 03:36:00,
2013-06-07 22:49:00,57.0,52.0,29.92,SW,218,0.0,0.0,84,0.00,,,0.00,,2013-06-08 03:49:00,
2013-06-07 23:00:00,57.0,52.0,29.92,SW,218,0.0,0.0,84,0.00,,,0.00,,2013-06-08 04:00:00,
2013-06-07 23:03:00,56.0,52.0,29.92,SW,218,0.0,0.0,85,0.00,,,0.00,,2013-06-08 04:03:00,
2013-06-07 23:12:00,56.0,52.0,29.92,SW,218,0.0,0.0,85,0.00,,,0.00,,2013-06-08 04:12:00,
2013-06-07 23:23:00,56.0,52.0,29.91,SW,218,0.0,0.0,85,0.00,,,0.00,,2013-06-08 04:23:00,
2013-06-07 23:33:00,56.0,52.0,29.92,SW,218,0.0,0.0,85,0.00,,,0.00,,2013-06-08 04:33:00,
2013-06-07 23:42:00,56.0,52.0,29.92,SW,218,0.0,0.0,85,0.00,,,0.00,,2013-06-08 04:42:00,
2013-06-07 23:53:00,55.0,51.0,29.92,SW,218,0.0,0.0,86,0.00,,,0.00,,2013-06-08 04:53:00,